TimeCET,TemperatureF,Dew PointF,Humidity,Sea Level PressureIn,VisibilityMPH,Wind Direction,Wind SpeedMPH,Gust SpeedMPH,PrecipitationIn,Events,Conditions,WindDirDegrees,DateUTC
12:00 AM,59.0,53.6,82,29.50,5.0,Variable,6.9,-,N/A,Rain,Light Rain,0,2013-03-04 23:00:00
12:30 AM,59.0,53.6,82,29.50,5.0,SE,4.6,-,N/A,Rain,Light Rain,140,2013-03-04 23:30:00
1:00 AM,57,51,75,29.50,6,SSE,3.5,,,,Overcast,160,2013-03-05 00:00:00
1:00 AM,57.2,53.6,88,29.47,5.0,SSE,3.5,-,N/A,,Mostly Cloudy,150,2013-03-05 00:00:00
1:30 AM,57.2,55.4,94,29.47,5.0,South,3.5,-,N/A,,Mostly Cloudy,190,2013-03-05 00:30:00
2:00 AM,57.2,55.4,94,29.47,5.0,South,6.9,-,N/A,,Mostly Cloudy,190,2013-03-05 01:00:00
3:00 AM,57.2,55.4,94,29.47,5.0,Variable,2.3,-,N/A,,Mostly Cloudy,0,2013-03-05 02:00:00
3:30 AM,57.2,55.4,94,29.47,5.0,Calm,Calm,-,N/A,,Mostly Cloudy,0,2013-03-05 02:30:00
4:00 AM,57.2,55.4,94,29.44,5.0,Variable,2.3,-,N/A,,Mostly Cloudy,0,2013-03-05 03:00:00
4:30 AM,55.4,55.4,100,29.44,5.0,Variable,2.3,-,N/A,,Mostly Cloudy,0,2013-03-05 03:30:00
5:00 AM,55.4,55.4,100,29.47,5.0,Calm,Calm,-,N/A,,Mostly Cloudy,0,2013-03-05 04:00:00
5:30 AM,53.6,53.6,100,29.47,5.0,Variable,2.3,-,N/A,,Scattered Clouds,0,2013-03-05 04:30:00
6:00 AM,55.4,53.6,94,29.44,5.0,NNW,3.5,-,N/A,,Scattered Clouds,340,2013-03-05 05:00:00
6:30 AM,53.6,53.6,100,29.47,5.0,Variable,1.2,-,N/A,,Scattered Clouds,0,2013-03-05 05:30:00
7:00 AM,54,52,89,29.47,3,North,3.5,,,,Mist,10,2013-03-05 06:00:00
7:00 AM,55.4,55.4,100,29.47,3.1,Variable,2.3,-,N/A,,Scattered Clouds,0,2013-03-05 06:00:00
8:00 AM,53.6,53.6,100,29.44,3.1,Variable,1.2,-,N/A,,Scattered Clouds,0,2013-03-05 07:00:00
8:30 AM,55.4,55.4,100,29.47,2.5,North,3.5,-,N/A,,Scattered Clouds,10,2013-03-05 07:30:00
9:00 AM,55.4,53.6,94,29.47,1.6,NNE,3.5,-,N/A,,Scattered Clouds,20,2013-03-05 08:00:00
9:11 AM,55.4,55.4,100,29.47,0.9,North,3.5,-,N/A,,Scattered Clouds,360,2013-03-05 08:11:00
9:17 AM,55.4,55.4,100,29.47,5.0,North,3.5,-,N/A,,Scattered Clouds,360,2013-03-05 08:17:00
9:22 AM,55.4,55.4,100,29.47,0.9,North,3.5,-,N/A,,Scattered Clouds,360,2013-03-05 08:22:00
9:30 AM,55.4,55.4,100,29.47,1.2,North,3.5,-,N/A,,Scattered Clouds,350,2013-03-05 08:30:00
9:51 AM,55.4,55.4,100,29.47,1.9,North,3.5,-,N/A,,Scattered Clouds,10,2013-03-05 08:51:00
10:00 AM,55.4,55.4,100,29.44,2.2,North,4.6,-,N/A,,Scattered Clouds,10,2013-03-05 09:00:00
10:30 AM,57.2,55.4,94,29.44,2.5,NNE,5.8,-,N/A,,Scattered Clouds,20,2013-03-05 09:30:00
11:00 AM,57.2,55.4,94,29.44,2.5,ENE,9.2,-,N/A,,Scattered Clouds,70,2013-03-05 10:00:00
11:30 AM,57.2,55.4,94,29.44,2.2,NE,6.9,-,N/A,,Partly Cloudy,50,2013-03-05 10:30:00
12:00 PM,59.0,55.4,88,29.42,2.2,NE,9.2,-,N/A,,Partly Cloudy,50,2013-03-05 11:00:00
12:30 PM,59.0,55.4,88,29.42,2.8,ENE,11.5,-,N/A,,Partly Cloudy,70,2013-03-05 11:30:00
1:00 PM,57,53,80,29.43,3,ENE,8.1,,,,Partly Cloudy,60,2013-03-05 12:00:00
2:00 PM,57.2,55.4,94,29.39,2.8,Variable,1.2,-,N/A,Rain,Light Rain,0,2013-03-05 13:00:00
2:30 PM,57.2,55.4,94,29.36,3.1,East,3.5,-,N/A,Rain,Light Rain,80,2013-03-05 13:30:00
3:00 PM,57.2,55.4,94,29.36,4.3,NNE,9.2,-,N/A,Rain,Light Rain,30,2013-03-05 14:00:00
3:30 PM,57.2,55.4,94,29.36,4.3,NNE,3.5,-,N/A,Rain,Light Rain,20,2013-03-05 14:30:00
4:00 PM,59.0,57.2,94,29.33,3.7,Variable,1.2,-,N/A,Rain,Light Rain,0,2013-03-05 15:00:00
4:30 PM,59.0,57.2,94,29.33,3.7,Calm,Calm,-,N/A,Rain,Light Rain,0,2013-03-05 15:30:00
5:00 PM,59.0,57.2,94,29.33,3.7,WSW,5.8,-,N/A,,Mostly Cloudy,240,2013-03-05 16:00:00
5:30 PM,59.0,57.2,94,29.33,3.7,SW,5.8,-,N/A,,Mostly Cloudy,220,2013-03-05 16:30:00
6:00 PM,59.0,57.2,94,29.33,2.5,WSW,8.1,-,N/A,Rain,Light Rain,240,2013-03-05 17:00:00
6:30 PM,57.2,55.4,94,29.33,3.7,WSW,8.1,-,N/A,Rain,Rain,250,2013-03-05 17:30:00
7:00 PM,57,52,78,29.36,6,West,11.5,,,Rain,Light Rain,280,2013-03-05 18:00:00
7:00 PM,57.2,55.4,94,29.36,5.6,West,10.4,-,N/A,Rain,Light Rain,280,2013-03-05 18:00:00
7:30 PM,57.2,53.6,88,29.36,6.2,WNW,15.0,-,N/A,Rain,Light Rain,290,2013-03-05 18:30:00
8:00 PM,57.2,53.6,88,29.36,6.2,WNW,12.7,-,N/A,Rain,Light Rain,290,2013-03-05 19:00:00
8:30 PM,57.2,53.6,88,29.36,6.2,NW,9.2,-,N/A,,Scattered Clouds,310,2013-03-05 19:30:00
9:00 PM,59.0,51.8,77,29.36,6.2,Variable,2.3,-,N/A,,Partly Cloudy,0,2013-03-05 20:00:00
9:30 PM,57.2,51.8,82,29.39,6.2,WSW,10.4,-,N/A,,Partly Cloudy,250,2013-03-05 20:30:00
10:00 PM,57.2,51.8,82,29.39,6.2,WSW,9.2,-,N/A,,Partly Cloudy,240,2013-03-05 21:00:00
10:30 PM,57.2,51.8,82,29.42,6.2,WSW,4.6,-,N/A,,Partly Cloudy,240,2013-03-05 21:30:00
11:00 PM,57.2,51.8,82,29.42,6.2,West,11.5,-,N/A,,Partly Cloudy,260,2013-03-05 22:00:00
11:30 PM,57.2,51.8,82,29.42,6.2,West,6.9,-,N/A,,Partly Cloudy,270,2013-03-05 22:30:00